FW2663 Weather Reports


time (UTC)temp
C
wind
direction
speed
KPH
gust
KPH
rain 1hr
cm
rain 24hr
cm
rain mn
cm
humidity
%
barometer
mb
20260505035003 14 0 0.0 0.0 0.00 0.00 0.00 79 1011.5
20260505034503 14 0 0.0 0.0 0.00 0.00 0.00 79 1011.4
20260505034003 14 0 0.0 0.0 0.00 0.00 0.00 79 1011.5
20260505033503 14 0 0.0 0.0 0.00 0.00 0.00 79 1011.5
20260505033003 15 0 0.0 0.0 0.00 0.00 0.00 79 1011.5
20260505032503 15 0 0.0 0.0 0.00 0.00 0.00 79 1011.5
20260505032024 15 0 0.0 0.0 0.00 0.00 0.00 80 1011.5
20260505031503 15 0 0.0 0.0 0.00 0.00 0.00 78 1011.5
20260505031003 15 0 0.0 0.0 0.00 0.00 0.00 77 1011.5
20260505030503 15 0 0.0 0.0 0.00 0.00 0.00 76 1011.5
20260505030003 15 0 0.0 0.0 0.00 0.00 0.00 77 1011.5
20260505025503 15 0 0.0 0.0 0.00 0.00 0.00 77 1011.6
20260505025003 15 0 0.0 0.0 0.00 0.00 0.00 77 1011.6
20260505024503 15 0 0.0 0.0 0.00 0.00 0.00 77 1011.5
20260505024003 16 0 0.0 0.0 0.00 0.00 0.00 76 1011.5
20260505023503 16 0 0.0 0.0 0.00 0.00 0.00 76 1011.5
20260505023003 16 0 0.0 0.0 0.00 0.00 0.00 75 1011.5
20260505022503 16 0 0.0 0.0 0.00 0.00 0.00 74 1011.5
20260505022003 16 0 0.0 0.0 0.00 0.00 0.00 74 1011.6
20260505021503 16 0 0.0 0.0 0.00 0.00 0.00 73 1011.6
20260505021003 16 0 0.0 0.0 0.00 0.00 0.00 73 1011.6
20260505020503 16 0 0.0 0.0 0.00 0.00 0.00 73 1011.6
20260505020024 16 0 0.0 0.0 0.00 0.00 0.00 73 1011.5
20260505015503 16 0 0.0 0.0 0.00 0.00 0.00 73 1011.6
20260505015003 17 0 0.0 0.0 0.00 0.00 0.00 73 1011.5
20260505014503 17 0 0.0 0.0 0.00 0.00 0.00 73 1011.4
20260505014003 17 0 0.0 0.0 0.00 0.00 0.00 72 1011.4
20260505013503 17 0 0.0 0.0 0.00 0.00 0.00 72 1011.4
20260505013003 17 0 0.0 0.0 0.00 0.00 0.00 71 1011.3
20260505012503 17 0 0.0 0.0 0.00 0.00 0.00 72 1011.2
20260505012003 17 0 0.0 0.0 0.00 0.00 0.00 72 1011.1
20260505011524 18 0 0.0 0.0 0.00 0.00 0.00 71 1011.1
20260505011003 18 0 0.0 0.0 0.00 0.00 0.00 70 1011.1
20260505010503 18 0 0.0 0.0 0.00 0.00 0.00 70 1011.1
20260505010003 18 0 0.0 0.0 0.00 0.00 0.00 70 1011.0
20260505005524 18 0 0.0 0.0 0.00 0.00 0.00 69 1010.9
20260505005004 18 0 0.0 0.0 0.00 0.00 0.00 67 1010.8
20260505004503 19 0 0.0 0.0 0.00 0.00 0.00 67 1010.8
20260505004003 19 0 0.0 0.0 0.00 0.00 0.00 65 1010.7
20260505003503 20 0 0.0 0.0 0.00 0.00 0.00 65 1010.6
20260505003003 20 0 0.0 0.0 0.00 0.00 0.00 63 1010.6
20260505002503 20 0 0.0 0.0 0.00 0.00 0.00 62 1010.6
20260505002024 21 0 0.0 0.0 0.00 0.00 0.00 61 1010.6
20260505001503 21 0 0.0 0.0 0.00 0.00 0.00 60 1010.6
20260505001003 21 0 0.0 0.0 0.00 0.00 0.00 58 1010.6
20260505000503 21 0 0.0 0.0 0.00 0.00 0.00 58 1010.6
20260505000024 22 0 0.0 0.0 0.00 0.00 0.00 56 1010.6
20260504235503 22 0 0.0 0.0 0.00 0.00 0.00 56 1010.5
20260504235024 22 0 0.0 0.0 0.00 0.00 0.00 55 1010.5
20260504234524 22 0 0.0 0.0 0.00 0.00 0.00 54 1010.4
20260504234003 22 0 0.0 0.0 0.00 0.00 0.00 53 1010.5
20260504233503 22 0 0.0 0.0 0.00 0.00 0.00 53 1010.4
20260504233003 23 165 0.0 8.0 0.00 0.00 0.00 52 1010.4
20260504232503 23 165 0.0 8.0 0.00 0.00 0.00 52 1010.4
20260504232003 23 169 0.0 1.6 0.00 0.00 0.00 51 1010.4
20260504231503 23 189 0.0 1.6 0.00 0.00 0.00 51 1010.4
20260504231003 23 211 0.0 1.6 0.00 0.00 0.00 51 1010.5
20260504230503 23 211 0.0 11.3 0.00 0.00 0.00 51 1010.5
20260504230024 23 211 1.6 11.3 0.00 0.00 0.00 50 1010.5
20260504225503 23 215 0.0 9.7 0.00 0.00 0.00 49 1010.5
20260504225003 23 231 1.6 16.1 0.00 0.00 0.00 50 1010.5
20260504224503 23 227 1.6 17.7 0.00 0.00 0.00 50 1010.6
20260504224003 23 192 1.6 17.7 0.00 0.00 0.00 50 1010.6
20260504223503 23 181 1.6 9.7 0.00 0.00 0.00 49 1010.6
20260504223003 23 197 0.0 1.6 0.00 0.00 0.00 48 1010.7
20260504222524 23 219 1.6 12.9 0.00 0.00 0.00 49 1010.7
20260504222003 23 207 1.6 12.9 0.00 0.00 0.00 48 1010.7
20260504221503 24 178 0.0 8.0 0.00 0.00 0.00 48 1010.7
20260504221003 24 186 0.0 8.0 0.00 0.00 0.00 47 1010.7
20260504220503 24 188 0.0 9.7 0.00 0.00 0.00 47 1010.8
20260504220003 24 186 0.0 9.7 0.00 0.00 0.00 48 1010.8
20260504215524 24 183 0.0 9.7 0.00 0.00 0.00 48 1010.9
20260504215003 24 182 1.6 9.7 0.00 0.00 0.00 47 1011.0
20260504214503 24 179 0.0 8.0 0.00 0.00 0.00 46 1011.1
20260504214003 24 178 0.0 8.0 0.00 0.00 0.00 46 1011.0
20260504213503 24 177 0.0 8.0 0.00 0.00 0.00 47 1010.9
20260504213003 24 182 1.6 9.7 0.00 0.00 0.00 47 1010.8
20260504212503 24 182 1.6 9.7 0.00 0.00 0.00 46 1010.8
20260504212003 24 187 1.6 9.7 0.00 0.00 0.00 48 1010.7
20260504211503 24 210 1.6 11.3 0.00 0.00 0.00 46 1010.7
20260504211024 24 210 3.2 11.3 0.00 0.00 0.00 47 1010.6
20260504210503 24 209 3.2 11.3 0.00 0.00 0.00 46 1010.7
20260504210003 24 216 1.6 9.7 0.00 0.00 0.00 47 1010.7
20260504205503 24 212 1.6 11.3 0.00 0.00 0.00 47 1010.6
20260504205003 24 208 3.2 11.3 0.00 0.00 0.00 46 1010.6
20260504204503 24 213 1.6 14.5 0.00 0.00 0.00 46 1010.7
20260504204003 24 218 1.6 14.5 0.00 0.00 0.00 49 1010.7
20260504203503 24 219 1.6 14.5 0.00 0.00 0.00 46 1010.8
20260504203003 24 209 3.2 19.3 0.00 0.00 0.00 45 1010.8
20260504202503 24 203 3.2 19.3 0.00 0.00 0.00 46 1010.8
20260504202003 24 199 1.6 16.1 0.00 0.00 0.00 46 1011.0
20260504201524 24 193 4.8 16.1 0.00 0.00 0.00 44 1010.9
20260504201024 25 193 3.2 16.1 0.00 0.00 0.00 46 1010.9
20260504200503 25 231 3.2 16.1 0.00 0.00 0.00 45 1011.0
20260504200003 25 220 3.2 16.1 0.00 0.00 0.00 44 1011.0
20260504195503 25 199 4.8 19.3 0.00 0.00 0.00 45 1011.0
20260504195003 25 203 4.8 19.3 0.00 0.00 0.00 45 1011.0
20260504194503 25 204 3.2 14.5 0.00 0.00 0.00 46 1011.0
20260504194003 24 216 1.6 16.1 0.00 0.00 0.00 46 1011.1
20260504193503 24 207 3.2 16.1 0.00 0.00 0.00 45 1011.1
20260504193003 24 208 3.2 12.9 0.00 0.00 0.00 45 1011.1
20260504192503 24 226 1.6 12.9 0.00 0.00 0.00 44 1011.3
20260504192003 24 233 1.6 11.3 0.00 0.00 0.00 45 1011.4
20260504191524 24 237 1.6 14.5 0.00 0.00 0.00 44 1011.5
20260504191003 24 240 1.6 14.5 0.00 0.00 0.00 43 1011.4
20260504190504 25 239 1.6 17.7 0.00 0.00 0.00 43 1011.6
20260504190003 25 218 3.2 17.7 0.00 0.00 0.00 43 1011.7
20260504185503 25 221 3.2 12.9 0.00 0.00 0.00 40 1011.7
20260504185003 25 239 1.6 11.3 0.00 0.00 0.00 44 1011.7
20260504184503 25 231 3.2 24.1 0.00 0.00 0.00 43 1011.9
20260504184003 25 226 3.2 24.1 0.00 0.00 0.00 43 1011.8
20260504183503 25 216 1.6 8.0 0.00 0.00 0.00 42 1011.9
20260504183003 25 215 1.6 9.7 0.00 0.00 0.00 42 1012.0
20260504182503 25 214 1.6 9.7 0.00 0.00 0.00 43 1012.1
20260504182003 24 214 1.6 8.0 0.00 0.00 0.00 42 1012.2
20260504181524 24 223 1.6 14.5 0.00 0.00 0.00 43 1012.3
20260504181003 24 223 1.6 14.5 0.00 0.00 0.00 44 1012.4
20260504180524 24 210 1.6 12.9 0.00 0.00 0.00 42 1012.4
20260504180003 24 208 3.2 14.5 0.00 0.00 0.00 41 1012.5
20260504175503 24 209 1.6 14.5 0.00 0.00 0.00 42 1012.5
20260504175003 23 209 3.2 16.1 0.00 0.00 0.00 43 1012.5
20260504174503 23 213 3.2 16.1 0.00 0.00 0.00 41 1012.5
20260504174003 23 226 1.6 16.1 0.00 0.00 0.00 44 1012.7
20260504173524 23 212 3.2 16.1 0.00 0.00 0.00 42 1012.7
20260504173003 24 195 1.6 9.7 0.00 0.00 0.00 42 1012.8
20260504172503 24 190 1.6 12.9 0.00 0.00 0.00 44 1012.8
20260504172003 23 187 1.6 12.9 0.00 0.00 0.00 43 1012.8
20260504171524 23 183 1.6 9.7 0.00 0.00 0.00 42 1012.8
20260504171003 23 181 1.6 11.3 0.00 0.00 0.00 43 1012.7
20260504170503 23 179 1.6 11.3 0.00 0.00 0.00 44 1013.0
20260504151003 20 185 0.0 9.7 0.00 0.00 0.00 48 1014.6
20260504150503 20 184 0.0 9.7 0.00 0.00 0.00 51 1014.6
20260504141003 18 235 0.0 9.7 0.00 0.00 0.00 52 1014.6
20260504140503 18 0 0.0 0.0 0.00 0.00 0.00 52 1014.6
20260504130503 16 249 0.0 3.2 0.00 0.00 0.00 60 1014.8
20260504110503 8 0 0.0 0.0 0.00 0.00 0.00 85 1015.1
20260504100503 8 0 0.0 0.0 0.00 0.00 0.00 85 1014.7
20260504082003 8 0 0.0 0.0 0.00 0.00 0.00 80 1014.6
20260504081503 8 0 0.0 0.0 0.00 0.00 0.00 81 1014.6
20260504081003 8 0 0.0 0.0 0.00 0.00 0.00 81 1014.7
20260504080524 8 0 0.0 0.0 0.00 0.00 0.00 81 1014.7
20260504050503 7 0 0.0 0.0 0.00 0.00 0.00 84 1014.8
20260504050003 6 0 0.0 0.0 0.00 0.00 0.00 84 1014.7
20260504045503 6 0 0.0 0.0 0.00 0.00 0.00 83 1014.8
20260504045003 6 0 0.0 0.0 0.00 0.00 0.00 83 1014.7
20260504044503 6 0 0.0 0.0 0.00 0.00 0.00 83 1014.7
20260504044003 6 0 0.0 0.0 0.00 0.00 0.00 83 1014.7
20260504043503 6 0 0.0 0.0 0.00 0.00 0.00 83 1014.9
20260504043003 6 0 0.0 0.0 0.00 0.00 0.00 83 1014.9
20260504042503 6 0 0.0 0.0 0.00 0.00 0.00 83 1014.9
20260504042003 6 0 0.0 0.0 0.00 0.00 0.00 82 1014.8
20260504041503 6 0 0.0 0.0 0.00 0.00 0.00 82 1014.8
20260504041003 6 0 0.0 0.0 0.00 0.00 0.00 81 1014.7
20260504040503 6 0 0.0 0.0 0.00 0.00 0.00 81 1014.7
20260504040004 6 0 0.0 0.0 0.00 0.00 0.00 81 1014.7
20260504035524 6 0 0.0 0.0 0.00 0.00 0.00 81 1014.8